This is the latest recevied weather packets stored in our database for station/object IK1AMC-3. If no packets are shown the sender has not sent any weather packets the latest 10 day(s).
| Time | Temp. | Humidity | Pressure | Rain* | Wind** | Luminosity | Snow |
|---|---|---|---|---|---|---|---|
| 1777432768 | 14.44° C | 67% | 1014.6 hPa | - | - | - | - |
| 1777431567 | 14.44° C | 65% | 1014.8 hPa | - | - | - | - |
| 1777430365 | 14.44° C | 61% | 1014.7 hPa | - | - | - | - |
| 1777429164 | 13.89° C | 60% | 1014.7 hPa | - | - | - | - |
| 1777427963 | 14.44° C | 59% | 1014.6 hPa | - | - | - | - |
| 1777426761 | 14.44° C | 60% | 1014.5 hPa | - | - | - | - |
| 1777425560 | 14.44° C | 59% | 1014.5 hPa | - | - | - | - |
| 1777424359 | 14.44° C | 58% | 1014.6 hPa | - | - | - | - |
| 1777423157 | 15° C | 56% | 1014.6 hPa | - | - | - | - |
| 1777421956 | 14.44° C | 57% | 1014.6 hPa | - | - | - | - |
| 1777420755 | 15° C | 57% | 1014.7 hPa | - | - | - | - |
| 1777419553 | 15° C | 57% | 1014.6 hPa | - | - | - | - |
| 1777418352 | 15.56° C | 55% | 1014.8 hPa | - | - | - | - |
| 1777417151 | 15° C | 57% | 1014.7 hPa | - | - | - | - |
| 1777415949 | 15° C | 58% | 1014.7 hPa | - | - | - | - |
| 1777414748 | 15.56° C | 57% | 1014.6 hPa | - | - | - | - |
| 1777413547 | 16.11° C | 60% | 1014.6 hPa | - | - | - | - |
| 1777412345 | 15.56° C | 57% | 1014.6 hPa | - | - | - | - |
| 1777411144 | 16.11° C | 60% | 1014.6 hPa | - | - | - | - |
| 1777409943 | 16.67° C | 57% | 1014.6 hPa | - | - | - | - |
| 1777408742 | 16.67° C | 61% | 1014.6 hPa | - | - | - | - |
| 1777407540 | 17.22° C | 59% | 1014.6 hPa | - | - | - | - |
| 1777406339 | 17.22° C | 61% | 1014.8 hPa | - | - | - | - |
| 1777405137 | 17.78° C | 61% | 1014.7 hPa | - | - | - | - |
| 1777403936 | 17.78° C | 61% | 1014.5 hPa | - | - | - | - |
* Rain since midnight (hover to see other rain measurements)
** Current wind speed in m/s (hover to see current wind gust speed)